CT1ETE Weather Reports


time (UTC)temp
C
wind
direction
speed
KPH
gust
KPH
rain 1hr
cm
rain 24hr
cm
rain mn
cm
humidity
%
barometer
mb
20260905080327 26 205 1.6 3.2 0.00 0.00 0.00 56 1019.3
20260905074825 26 205 0.0 1.6 0.00 0.00 0.00 59 1019.2
20260905073323 25 205 0.0 1.6 0.00 0.00 0.00 55 1019.0
20260905071821 24 205 0.0 6.4 0.00 0.00 0.00 56 1019.0
20260905070318 24 205 3.2 6.4 0.00 0.00 0.00 57 1018.9
20260905064818 24 194 1.6 4.8 0.00 0.00 0.00 53 1018.8
20260905063316 24 194 1.6 3.2 0.00 0.00 0.00 52 1018.6
20260905062514 24 194 1.6 4.8 0.00 0.00 0.00 51 1018.5
20260905060316 24 194 3.2 6.4 0.00 0.00 0.00 49 1018.3
20260905060207 24 131 4.8 6.4 0.00 0.00 0.00 52 1018.2
20260905053313 24 205 3.2 4.8 0.00 0.00 0.00 53 1018.2
20260905051808 25 205 3.2 8.0 0.00 0.00 0.00 53 1018.3
20260905050307 25 250 3.2 6.4 0.00 0.00 0.00 52 1018.3
20260905044807 26 250 1.6 4.8 0.00 0.00 0.00 54 1018.6
20260905043307 27 250 3.2 9.7 0.00 0.00 0.00 51 1018.6
20260905041805 28 117 8.0 16.1 0.00 0.00 0.00 40 1018.7
20260905040305 27 88 8.0 16.1 0.00 0.00 0.00 40 1018.9
20260905035516 27 92 8.0 12.9 0.00 0.00 0.00 42 1019.0
20260905033301 27 86 6.4 14.5 0.00 0.00 0.00 43 1019.1
20260905031758 27 95 9.7 17.7 0.00 0.00 0.00 42 1019.2
20260905030956 27 101 9.7 17.7 0.00 0.00 0.00 43 1019.4
20260905024759 27 135 9.7 17.7 0.00 0.00 0.00 43 1019.4
20260905023258 27 109 12.9 19.3 0.00 0.00 0.00 45 1019.5
20260905021759 26 92 11.3 17.7 0.00 0.00 0.00 47 1019.6
20260905020259 26 91 6.4 12.9 0.00 0.00 0.00 52 1019.6
20260905014759 26 135 1.6 6.4 0.00 0.00 0.00 51 1019.6
20260905013258 26 135 1.6 4.8 0.00 0.00 0.00 52 1019.7
20260905011759 27 135 4.8 11.3 0.00 0.00 0.00 50 1019.7
20260905010956 26 136 8.0 12.9 0.00 0.00 0.00 47 1019.8
20260905004759 26 120 4.8 9.7 0.00 0.00 0.00 52 1019.9
20260905003258 26 108 3.2 9.7 0.00 0.00 0.00 55 1019.8
20260905001758 26 95 8.0 12.9 0.00 0.00 0.00 57 1020.0
20260905000945 26 90 8.0 12.9 0.00 0.00 0.00 53 1020.1
20260904234752 26 119 3.2 6.4 0.00 0.00 0.00 57 1020.2
20260904233250 26 119 1.6 6.4 0.00 0.00 0.00 60 1020.4
20260904231748 26 119 4.8 11.3 0.00 0.00 0.00 60 1020.2
20260904230247 26 98 9.7 17.7 0.00 0.00 0.00 58 1020.3
20260904224755 26 131 3.2 8.0 0.00 0.00 0.00 51 1020.5
20260904223240 25 109 6.4 11.3 0.00 0.00 0.00 63 1020.1
20260904222442 25 74 4.8 9.7 0.00 0.00 0.00 69 1020.4
20260904220241 26 96 4.8 9.7 0.00 0.00 0.00 68 1021.2
20260904220140 26 126 3.2 27.4 0.00 0.00 0.00 67 1021.2
20260904213939 26 237 11.3 30.6 0.00 0.00 0.00 64 1021.3
20260904212438 26 342 1.6 6.4 0.00 0.00 0.00 60 1021.2
20260904210240 26 342 4.8 8.0 0.00 0.00 0.00 61 1021.4
20260904205433 26 275 4.8 14.5 0.00 0.00 0.00 64 1020.9
20260904203240 26 348 11.3 19.3 0.00 0.00 0.00 70 1020.5
20260904201741 26 117 4.8 6.4 0.00 0.00 0.00 71 1022.1
20260904200241 26 230 3.2 6.4 0.00 0.00 0.00 70 1021.9
20260904194741 26 292 4.8 8.0 0.00 0.00 0.00 69 1021.8
20260904193240 27 243 9.7 19.3 0.00 0.00 0.00 66 1021.8
20260904191740 27 242 9.7 22.5 0.00 0.00 0.00 63 1021.2
20260904190240 27 138 6.4 12.9 0.00 0.00 0.00 58 1020.3
20260904184740 27 111 6.4 9.7 0.00 0.00 0.00 67 1020.3
20260904183238 27 111 4.8 6.4 0.00 0.00 0.00 65 1020.8
20260904181738 27 111 3.2 9.7 0.00 0.00 0.00 65 1020.9
20260904180238 27 112 4.8 9.7 0.00 0.00 0.00 65 1021.0
20260904175440 28 235 3.2 11.3 0.00 0.00 0.00 64 1021.3
20260904173238 28 235 6.4 11.3 0.00 0.00 0.00 61 1021.3
20260904171738 29 254 4.8 12.9 0.00 0.00 0.00 60 1021.4
20260904170239 30 235 6.4 12.9 0.00 0.00 0.00 60 1021.4
20260904165423 30 28 0.0 4.8 0.00 0.00 0.00 59 1021.1
20260904163229 30 28 4.8 8.0 0.00 0.00 0.00 59 1020.9
20260904161730 30 243 4.8 16.1 0.00 0.00 0.00 60 1021.0
20260904160230 29 239 9.7 20.9 0.00 0.00 0.00 60 1021.1
20260904154730 29 248 16.1 27.4 0.00 0.00 0.00 59 1020.8
20260904153230 30 229 22.5 37.0 0.00 0.00 0.00 55 1020.7
20260904151728 30 248 19.3 37.0 0.00 0.00 0.00 53 1020.7
20260904150228 30 226 20.9 32.2 0.00 0.00 0.00 54 1020.7
20260904144727 30 227 8.0 16.1 0.00 0.00 0.00 55 1020.3
20260904143228 30 136 6.4 16.1 0.00 0.00 0.00 53 1019.7
20260904142417 30 331 4.8 9.7 0.00 0.00 0.00 49 1019.8
20260904140228 30 14 3.2 11.3 0.00 0.00 0.00 51 1020.5
20260904135424 29 342 4.8 14.5 0.00 0.00 0.00 52 1020.7
20260904133226 29 333 6.4 17.7 0.00 0.00 0.00 53 1020.8
20260904132428 29 355 6.4 12.9 0.00 0.00 0.00 55 1020.6
20260904130223 28 349 6.4 12.9 0.00 0.00 0.00 53 1021.2
20260904124721 29 298 6.4 12.9 0.00 0.00 0.00 53 1021.9
20260904123219 29 233 3.2 9.7 0.00 0.00 0.00 53 1022.4
20260904121720 29 240 4.8 8.0 0.00 0.00 0.00 51 1022.5
20260904120219 29 69 3.2 8.0 0.00 0.00 0.00 50 1022.4
20260904114719 29 336 3.2 9.7 0.00 0.00 0.00 52 1022.4
20260904113216 29 309 6.4 11.3 0.00 0.00 0.00 53 1022.5
20260904111716 28 236 4.8 12.9 0.00 0.00 0.00 52 1022.6
20260904110215 28 282 4.8 11.3 0.00 0.00 0.00 55 1022.6
20260904104715 28 277 6.4 12.9 0.00 0.00 0.00 58 1022.5
20260904103215 28 229 4.8 11.3 0.00 0.00 0.00 54 1022.4
20260904101714 27 231 4.8 11.3 0.00 0.00 0.00 56 1022.2
20260904100216 27 231 1.6 11.3 0.00 0.00 0.00 57 1021.9
20260904094711 27 238 3.2 11.3 0.00 0.00 0.00 59 1021.8
20260904093210 27 222 12.9 19.3 0.00 0.00 0.00 59 1021.3
20260904091707 26 101 8.0 12.9 0.00 0.00 0.00 56 1020.9
20260904090207 26 103 1.6 9.7 0.00 0.00 0.00 57 1020.7
20260904084705 26 214 4.8 11.3 0.00 0.00 0.00 57 1020.7
20260904083900 26 222 1.6 6.4 0.00 0.00 0.00 57 1020.6
20260904081703 25 88 6.4 11.3 0.00 0.00 0.00 52 1020.3